Location: Bidart
(43.4376°N, 1.5913°W)
Time: 15:37:18
(UTC+00:00)

ATLAS 3B R/B - Pass Details

Date: 19 May 2025
Orbit: 935 x 1258 km, 63.8° (Epoch: 17 June)

Event Time Altitude Azimuth Distance (km) Brightness Sun altitude
Exits shadow 23:17:16 44° 208° (SSW) 1,590 3.2 -25.7°
Maximum altitude 23:20:02 85° 124° (SE) 1,210 2.8 -25.8°
Drops below altitude 10° 23:27:51 10° 37° (NE) 3,223 5.7 -26.1°
Sets 23:30:42 0° 37° (NE) 4,209 6.4 -26.1°
